Wind_Speed
7 6 6 6 6 5 5 6 6 6 6 6 6 6 7 8 8 9 9 9 10 10 11 12 12 13 14 15 16 17 17 18 19 19 20 20 21 22
7 7 6 6 6 6 6 6 5 6 6 6 7 8 8 8 9 9 10 10 10 11 11 12 13 14 14 15 16 17 18 18 19 20 21 21 22 23
8 8 8 7 7 7 7 7 7 7 7 7 8 9 9 9 10 10 10 11 11 12 12 13 13 14 15 16 17 17 18 19 20 20 21 22 22 22
9 9 9 8 8 8 8 8 8 8 9 9 10 10 10 11 11 12 12 13 13 13 14 14 15 16 16 17 19 19 20 21 22 22 23 23 24 24
10 10 10 10 9 9 9 10 10 10 10 10 11 12 12 13 13 13 14 15 15 16 16 17 18 18 19 20 21 21 22 23 23 24 25 26 26 27
11 11 11 11 11 11 11 11 12 11 12 12 13 14 14 14 15 15 16 17 17 18 19 20 21 22 22 22 23 24 25 26 27 27 27 28 28 29
12 12 12 12 12 13 13 13 13 13 14 14 15 15 16 16 17 18 19 19 20 21 22 23 23 24 25 25 26 27 28 28 29 29 30 30 31 31
14 14 14 15 15 15 15 14 14 15 16 16 17 17 18 19 20 20 21 22 22 23 24 25 25 26 26 27 28 29 29 30 31 32 32 33 33 34
15 15 16 16 17 17 16 16 17 18 19 19 20 20 21 21 22 23 23 24 25 26 27 27 28 29 30 30 31 31 32 33 34 35 35 36 36 36
16 16 17 18 18 18 18 19 19 20 21 22 22 23 23 24 25 25 26 27 28 29 30 30 31 32 32 33 34 34 35 36 36 37 38 38 38 39
18 18 18 19 19 20 21 22 22 23 23 24 24 25 26 27 28 29 30 31 31 32 34 33 33 34 34 35 36 36 37 38 39 39 40 40 40 40
20 19 20 20 22 22 23 24 24 25 25 26 27 28 29 30 31 32 33 34 35 35 36 36 36 37 36 37 38 39 39 40 41 41 41 42 42 42
20 20 21 22 23 24 24 25 26 27 28 29 30 31 33 34 35 36 36 37 38 38 39 40 40 40 40 39 39 40 41 41 42 42 42 43 44 44
21 22 23 24 24 25 26 28 29 30 31 31 33 34 35 35 36 37 39 40 40 41 42 42 42 42 42 42 42 42 43 43 44 44 44 45 45 46
23 24 25 26 27 28 29 30 31 32 33 34 34 35 36 37 38 40 41 42 43 43 43 44 44 45 45 45 45 45 44 45 45 45 46 47 47 47
26 27 28 29 29 30 31 33 34 35 36 36 36 37 39 40 41 42 43 43 44 43 44 45 46 47 47 47 47 46 47 47 47 48 48 48 49 49
29 29 30 31 32 33 34 35 36 37 38 39 40 41 42 42 43 43 44 44 45 45 45 46 47 48 48 49 48 48 48 48 48 49 49 49 49 49
30 31 32 33 34 34 36 37 38 39 40 41 42 43 43 44 44 45 45 46 46 46 47 48 49 49 49 48 49 49 49 49 49 49 50 49 48 48
32 33 34 35 36 36 37 39 40 42 43 44 44 44 45 45 45 46 46 47 47 48 48 49 49 49 49 48 48 49 49 48 49 48 49 48 47 46
34 35 36 37 37 39 40 41 42 44 45 45 45 46 46 46 46 47 48 48 48 49 49 49 49 49 48 48 47 47 48 48 48 48 47 47 46 45
37 38 39 39 40 41 42 43 45 46 46 47 47 47 47 47 47 48 48 49 49 50 49 48 48 48 48 47 47 46 47 48 48 47 46 46 45 43
39 40 41 42 43 43 44 45 46 47 47 47 47 47 48 48 48 49 49 49 49 49 48 48 48 48 47 47 47 46 45 46 46 46 45 45 44 42
41 42 43 44 44 45 46 47 47 48 48 47 47 48 49 49 49 49 49 49 49 48 47 47 47 47 47 47 47 46 45 44 44 43 43 42 42 41
Wind_Direction
245 248 246 250 257 267 274 276 281 283 281 283 285 283 285 288 289 290 293 294 293 292 287 283 281 279 279 278 277 278 277 277 275 275 275 275 274 273
245 246 249 253 260 272 276 279 283 284 282 284 285 285 284 286 289 291 293 294 294 293 292 289 286 283 281 280 280 279 278 278 277 277 277 278 277 276
248 253 255 260 264 269 273 276 279 282 283 284 283 283 283 283 284 287 291 295 295 294 293 293 290 288 284 283 283 282 280 280 280 280 279 280 280 278
251 253 256 260 265 269 271 275 279 280 281 284 286 286 286 285 285 286 289 292 293 292 292 293 293 291 288 287 285 284 284 283 282 281 281 281 280 279
252 254 256 260 265 270 272 276 279 281 283 284 285 286 286 286 287 289 289 289 289 289 290 290 291 290 289 288 286 285 285 285 284 283 282 282 281 279
255 255 256 259 264 270 273 278 278 279 282 283 284 286 287 288 290 290 290 290 290 289 288 289 289 289 288 287 287 286 286 286 285 285 284 284 282 281
253 255 258 262 266 271 275 277 278 279 281 283 284 285 285 287 290 291 291 291 290 289 289 289 288 288 288 287 287 287 286 286 286 285 284 284 283 283
258 259 261 264 268 272 274 275 277 280 282 284 285 285 285 286 288 288 288 288 289 288 288 288 288 288 288 288 288 288 287 286 285 285 285 284 283 282
262 264 265 268 270 271 273 276 280 282 283 284 284 285 285 286 286 286 286 287 287 288 288 288 288 288 288 288 288 287 286 286 285 284 284 283 283 282
266 268 270 271 271 273 275 278 280 282 284 285 285 286 286 286 286 286 286 287 288 288 288 288 288 288 288 288 288 287 287 286 285 284 284 284 283 282
267 269 272 272 275 276 276 278 280 282 283 284 286 286 286 286 286 287 288 289 289 290 290 290 289 289 289 289 288 288 287 287 287 286 286 285 285 284
269 270 273 274 276 278 279 280 282 283 284 284 285 286 286 286 286 287 288 288 289 289 289 290 290 289 289 289 289 288 288 288 288 288 287 287 286 285
270 273 275 277 278 279 281 282 283 284 285 285 285 286 287 287 287 288 289 290 290 290 289 289 290 290 290 289 288 288 288 288 288 287 287 287 286 285
272 274 276 279 280 280 282 283 284 284 285 285 286 287 287 288 288 289 290 290 290 290 290 290 290 289 289 289 288 288 287 287 287 286 286 286 286 285
273 275 277 279 280 281 283 284 286 286 286 286 286 287 288 288 289 290 290 290 290 290 289 289 289 289 289 289 288 287 287 287 287 287 287 286 286 285
273 276 278 280 281 282 283 285 286 286 286 286 286 287 288 289 289 290 290 290 290 290 290 290 290 290 290 290 289 289 288 287 286 286 287 286 286 285
275 277 279 281 282 283 284 285 286 286 287 287 287 287 287 288 289 291 291 291 290 290 289 290 290 290 290 290 289 288 288 287 287 287 287 286 285 285
277 280 281 282 282 283 284 286 287 288 288 289 289 288 288 289 289 290 291 291 291 291 291 290 290 289 289 290 290 290 289 289 288 288 288 288 287 286
278 281 283 284 283 284 285 286 287 288 288 289 290 290 290 289 289 290 291 292 291 291 291 291 291 291 290 290 290 290 290 290 289 289 289 289 288 286
279 281 283 284 284 285 286 287 288 288 288 289 290 290 290 290 290 291 291 291 290 290 290 290 291 291 292 291 290 290 290 290 290 289 288 288 287 287
280 281 282 283 285 286 286 286 287 288 288 289 289 289 289 290 290 291 291 291 290 291 290 290 290 290 291 291 290 290 290 290 291 290 289 288 287 286
281 281 282 284 285 286 286 287 288 288 289 289 288 288 289 289 290 290 290 290 290 291 291 290 291 290 290 290 290 289 290 290 291 291 290 289 288 287
281 282 283 285 286 287 288 289 289 289 289 289 288 289 289 289 290 291 291 291 291 291 291 291 291 291 291 291 291 291 291 291 291 290 290 289 289 289
Height
5867 5867 5868 5868 5868 5868 5868 5867 5867 5866 5866 5865 5864 5863 5862 5862 5861 5860 5859 5857 5856 5855 5854 5853 5853 5852 5851 5850 5849 5848 5847 5846 5846 5845 5844 5843 5842 5841
5865 5865 5866 5866 5866 5866 5865 5865 5865 5864 5863 5863 5862 5861 5860 5859 5858 5857 5856 5855 5854 5853 5851 5850 5849 5848 5847 5846 5845 5844 5843 5842 5841 5840 5838 5837 5836 5835
5863 5863 5863 5863 5863 5863 5863 5863 5862 5862 5861 5860 5859 5858 5858 5857 5856 5854 5853 5852 5851 5849 5848 5847 5845 5844 5843 5841 5840 5839 5838 5837 5835 5834 5833 5832 5830 5829
5860 5860 5861 5861 5861 5861 5860 5860 5859 5859 5858 5857 5856 5855 5854 5853 5852 5851 5850 5849 5847 5846 5844 5843 5841 5840 5838 5837 5835 5834 5832 5831 5830 5828 5827 5826 5824 5823
5857 5858 5858 5858 5858 5858 5857 5857 5856 5856 5855 5854 5853 5852 5851 5850 5849 5847 5846 5845 5843 5842 5840 5839 5837 5835 5833 5832 5830 5828 5827 5825 5823 5822 5820 5819 5817 5815
5854 5854 5855 5855 5855 5854 5854 5853 5852 5852 5851 5850 5849 5848 5847 5846 5845 5843 5842 5840 5839 5837 5835 5833 5831 5830 5828 5826 5824 5822 5820 5819 5817 5815 5813 5811 5809 5807
5851 5851 5851 5851 5851 5850 5850 5849 5848 5848 5847 5846 5845 5844 5843 5842 5840 5838 5837 5835 5833 5832 5830 5828 5825 5823 5821 5819 5817 5815 5813 5811 5809 5807 5805 5803 5801 5799
5847 5847 5847 5847 5847 5846 5846 5845 5844 5843 5842 5841 5841 5839 5838 5836 5835 5833 5831 5829 5827 5826 5823 5821 5819 5817 5814 5812 5810 5808 5805 5803 5801 5798 5796 5794 5792 5790
5843 5843 5842 5842 5842 5841 5841 5840 5839 5838 5837 5836 5835 5833 5832 5830 5828 5827 5825 5823 5821 5818 5816 5814 5811 5809 5807 5804 5802 5799 5796 5794 5791 5789 5786 5784 5782 5779
5838 5838 5838 5838 5837 5836 5836 5835 5834 5833 5831 5830 5829 5827 5825 5823 5821 5819 5817 5815 5813 5810 5807 5806 5803 5800 5798 5795 5792 5789 5786 5784 5781 5779 5776 5773 5771 5768
5834 5833 5833 5832 5832 5830 5830 5829 5828 5826 5825 5823 5822 5820 5818 5815 5813 5811 5809 5807 5805 5802 5798 5796 5794 5791 5788 5785 5782 5778 5776 5773 5770 5767 5765 5762 5759 5756
5828 5828 5827 5826 5826 5824 5824 5822 5821 5820 5818 5816 5815 5813 5810 5807 5805 5802 5800 5797 5795 5793 5788 5785 5783 5780 5778 5775 5771 5767 5764 5761 5758 5755 5752 5749 5746 5744
5822 5822 5821 5820 5819 5818 5817 5815 5814 5812 5810 5808 5806 5804 5801 5798 5795 5792 5790 5787 5784 5782 5778 5775 5772 5768 5765 5763 5760 5756 5752 5749 5746 5743 5739 5737 5733 5731
5816 5815 5814 5813 5812 5811 5809 5807 5806 5804 5802 5800 5797 5795 5791 5788 5785 5782 5779 5776 5773 5770 5766 5762 5759 5756 5753 5750 5748 5744 5740 5737 5733 5730 5727 5723 5720 5717
5809 5808 5807 5806 5804 5803 5801 5799 5797 5795 5792 5790 5787 5784 5781 5778 5775 5771 5768 5764 5761 5757 5753 5750 5746 5743 5740 5737 5734 5731 5727 5724 5720 5716 5713 5709 5706 5703
5801 5800 5799 5797 5796 5794 5792 5790 5787 5785 5782 5780 5777 5774 5771 5767 5763 5760 5756 5752 5749 5746 5741 5737 5733 5730 5726 5723 5720 5717 5713 5710 5706 5702 5699 5695 5691 5687
5793 5792 5790 5789 5787 5785 5782 5780 5777 5774 5772 5769 5766 5762 5759 5755 5751 5747 5743 5739 5736 5733 5729 5724 5720 5716 5712 5709 5705 5702 5698 5694 5690 5687 5683 5680 5676 5672
5784 5783 5781 5779 5777 5775 5772 5769 5767 5764 5760 5757 5753 5750 5746 5742 5738 5734 5730 5726 5722 5718 5714 5710 5706 5702 5698 5694 5690 5686 5682 5679 5675 5671 5667 5664 5662 5657
5775 5773 5771 5769 5767 5764 5761 5758 5755 5752 5748 5745 5741 5737 5733 5729 5725 5721 5717 5712 5708 5704 5700 5695 5691 5687 5684 5681 5677 5670 5667 5664 5660 5656 5652 5648 5646 5643
5765 5763 5760 5758 5755 5752 5750 5747 5743 5740 5736 5732 5728 5724 5719 5715 5711 5707 5703 5699 5694 5690 5685 5680 5676 5671 5668 5665 5662 5658 5652 5648 5644 5641 5637 5633 5630 5628
5753 5751 5749 5746 5743 5740 5737 5734 5730 5726 5722 5719 5715 5710 5706 5702 5698 5693 5689 5684 5679 5675 5671 5666 5661 5657 5652 5649 5647 5644 5639 5633 5628 5625 5621 5618 5616 5613
5741 5739 5736 5733 5731 5727 5724 5720 5716 5712 5709 5705 5701 5696 5692 5688 5683 5679 5674 5670 5665 5661 5657 5653 5648 5643 5638 5635 5632 5629 5625 5620 5615 5610 5606 5603 5600 5599
5728 5726 5723 5720 5717 5713 5710 5706 5702 5699 5695 5691 5686 5682 5678 5673 5669 5664 5660 5656 5651 5647 5643 5639 5634 5630 5625 5621 5617 5614 5610 5606 5602 5598 5594 5590 5587 5584